Regional Weather Roundup
Issued by NWS

Home | Current Version | Previous Version | Text Only | Print | Product List | Glossary Off
Versions: 1 2 3 4 5 6 7 8 9 10 11 12 13 14 15 16 17 18 19 20 21 22 23 24 25 26 27 28 29 30 31 32 33 34 35 36 37 38 39 40 41 42 43 44 45 46 47 48 49 50

000
ASUS43 KDTX 171710
RWRMI
MICHIGAN HOURLY REGIONAL WEATHER ROUNDUP
NATIONAL WEATHER SERVICE DETROIT/PONTIAC MI
ISSUED BY NATIONAL WEATHER SERVICE GRAND RAPIDS MI
100 PM EDT THU AUG 17 2017

NOTE: "FAIR" INDICATES FEW OR NO CLOUDS BELOW 12,000 FEET WITH NO
SIGNIFICANT WEATHER AND/OR OBSTRUCTION TO VISIBILITY.

MIZ047>049-052>055-059>063-066>070-074>076-081>083-171800-
SOUTHEAST LOWER MICHIGAN

CITY           SKY/WX    TMP DP  RH WIND       PRES   REMARKS
ADRIAN         TSTM      74  71  91 SW8       29.86S VSB 3/4
ALMA           CLOUDY    74  72  91 S6        29.79F
ANN ARBOR      RAIN      76  74  93 SW6       29.84S FOG
BAD AXE        CLOUDY    70  68  93 S9        29.83F
DETROIT CITY   CLOUDY    80  73  79 S12       29.83F
DETROIT        LGT RAIN  79  74  84 SW9       29.83F
FLINT          LGT RAIN  77  71  82 S8        29.81F
GROSSE ILE     CLOUDY    78  73  86 S7        29.82F
HILLSDALE      RAIN      70  68  94 SE7       29.84F
HOWELL         LGT RAIN  75  72  90 S8        29.83S

CITY           SKY/WX    TMP DP  RH WIND       PRES   REMARKS
JACKSON        CLOUDY    74  71  91 SE10      29.82F FOG
LANSING        CLOUDY    75  70  84 S8        29.80F
MASON          LGT RAIN  75  72  88 S7        29.81F
MONROE         CLOUDY    80  73  79 S3        29.82S
MT. CLEMENS    PTSUNNY   78  76  92 S10       29.82F FOG
PONTIAC        LGT RAIN  77  72  84 S12       29.83S
PORT HOPE        N/A     70  67  90 SE14G24   29.80F
PORT HURON     CLOUDY    75  70  83 SE9       29.84F
TRI CITIES     LGT RAIN  75  73  93 S6        29.79F
YPSILANTI      LGT RAIN  78  75  90 SW6       29.84S FOG
$$
MIZ043>046-050>051-056>058-064>065-071>073-077>080-171800-
SOUTHWEST LOWER MICHIGAN

CITY           SKY/WX    TMP DP  RH WIND       PRES   REMARKS
BATTLE CREEK   CLOUDY    77  73  87 S9        29.79F
BENTON HARBOR  CLOUDY    79  69  71 SW9       29.76F
BIG RAPIDS     CLOUDY    72  69  90 S8        29.74F
COLDWATER      CLOUDY    76  75  99 S9        29.81F
HOLLAND        CLOUDY    74  70  87 SW12      29.76F
GRAND RAPIDS   LGT RAIN  75  73  93 S9        29.76S
KALAMAZOO      PTSUNNY   79  70  74 S13       29.77F
MARSHALL       CLOUDY    75  74  98 SE6       29.79F
MOUNT PLEASANT LGT RAIN  76  73  88 SE6       29.76F
MUSKEGON       CLOUDY    74  71  91 S14       29.75S
STURGIS        CLOUDY    77  73  87 S8        29.79F
$$
MIZ016>042-171800-
NORTHERN LOWER MICHIGAN

CITY           SKY/WX    TMP DP  RH WIND       PRES   REMARKS
ALPENA         LGT RAIN  68  68 100 SE7       29.80F FOG
BEAVER ISLAND  CLOUDY    73  69  87 S8G18     29.69S
BELLAIRE       CLOUDY    72  68  86 S9        29.71F
CADILLAC       LGT RAIN  73  70  89 S9        29.74F
CHARLEVOIX     CLOUDY    72  71  97 S9G20     29.71F
GAYLORD        CLOUDY    68  65  90 S12       29.76F
HOUGHTON LAKE  LGT RAIN  68  67  96 SE9       29.78F FOG
MANISTEE       CLOUDY    73  71  93 SW9       29.70S
OSCODA         CLOUDY    70  67  92 S8G17     29.80F
PELLSTON       CLOUDY    69  67  93 SE9       29.71F
TRAVERSE CITY  CLOUDY    73  69  87 VRB3      29.68F
LUDINGTON      CLOUDY    72  69  91 S14G21    29.70F
$$
MIZ007>008-015-171800-
EASTERN UPPER MICHIGAN

CITY           SKY/WX    TMP DP  RH WIND       PRES   REMARKS
KINROSS        LGT RAIN  64  63  96 E15       29.76F
MACKINAC ISLAN LGT RAIN  67  67 100 SE6       29.73F
NEWBERRY       CLOUDY    65  64  97 E9        29.71F
S. S. MARIE    RAIN      64  63  96 E8        29.79S FOG
$$
MIZ004>006-011>014-085-171800-
CENTRAL UPPER MICHIGAN

CITY           SKY/WX    TMP DP  RH WIND       PRES   REMARKS
MANISTIQUE     CLOUDY    69  63  81 SE9       29.68S
ESCANABA       CLOUDY    72  68  88 S16G23    29.62F
MENOMINEE      PTSUNNY   77  71  82 S12       29.60F
SAWYER-GWINN   CLOUDY    68  66  94 SE9       29.63F FOG
$$
MIZ001>003-009>011-084-171800-
WESTERN UPPER MICHIGAN

CITY           SKY/WX    TMP DP  RH WIND       PRES   REMARKS
IRON MOUNTAIN  PTSUNNY   78  68  71 S10       29.58F
HOUGHTON       FOG       64  62  93 E8        29.59F VSB<1/4
COPPER HARBOR    N/A     63  60  90 S13G28    29.61F
IRONWOOD       LGT RAIN  70  66  88 SE7       29.57F
$$

ABBREVIATIONS USED IN REMARKS
   TC - TEMPERATURE IN CELSIUS
  WCI - WIND CHILL INDEX
   HX - HEAT INDEX
  VSB - VISIBILITY





USA.gov is the U.S. government's official web portal to all federal, state and local government web resources and services.